Home   Weather   Salina   Past weeks

Flag for USA Past Weather in Salina, Kansas, USA — Yesterday and Last 2 Weeks

Now
51 °F

Clear.


Feels Like: 51 °F
Forecast: 47 / 71 °F
Wind: 3 mph from North

Location: Salina Municipal Airport

Current Time: Sep 29, 2016 at 3:33:14 AM

Latest Report: Sep 29, 2016 at 2:53 AM


Visibility: 10 mi

Pressure: 30.33 "Hg

Humidity: 83%

Dew Point: 46 °F

Location of SalinaLocation

Past Weather in Salina — Graph

°F

Salina Temperature Yesterday

Maximum temperature yesterday: 75 °F (at 2:53 PM)
Minimum temperature yesterday: 55 °F (at 6:53 AM)
Average temperature yesterday: 65 °F

High & Low Weather Summary for the Past Weeks

 TemperatureHumidityPressure
High97 °F (Sep 19, 3:53 PM)100% (Sep 16, 9:53 PM)30.33 "Hg (Sep 16, 9:53 PM)
Low46 °F (Sep 26, 7:53 AM)24% (Sep 26, 2:53 PM)29.82 "Hg (Sep 22, 4:53 PM)
Average72 °F70%30.00 "Hg
* Reported Sep 14 1:53 AM — Sep 29 1:53 AM, Salina, Weather by CustomWeather, © 2016

Note: Actual official high and low records may vary slightly from our data, if they occured in-between our weather recording intervals... More about our weather records

Advertising

Salina Weather History for the Previous 24 Hours

Scroll right to see more
 ConditionsComfort  
Time TempWeatherWind HumidityBarometerVisibility
1:53 AM
Thu, Sep 29
52 °FClear.5 mph80%30.31 "Hg10 mi
12:53 AM54 °FClear.3 mph74%30.31 "Hg10 mi
11:53 PM
Wed, Sep 28
58 °FClear.5 mph65%30.30 "Hg10 mi
10:53 PM59 °FClear.7 mph62%30.28 "Hg10 mi
9:53 PM60 °FClear.6 mph60%30.27 "Hg10 mi
8:53 PM63 °FClear.5 mph52%30.25 "Hg10 mi
7:53 PM66 °FClear.7 mph45%30.22 "Hg10 mi
6:53 PM69 °FSunny.13 mph41%30.20 "Hg10 mi
5:53 PM72 °FSunny.15 mph38%30.17 "Hg10 mi
4:53 PM74 °FSunny.13 mph38%30.16 "Hg10 mi
3:53 PM75 °FSunny.15 mph39%30.14 "Hg10 mi
2:53 PM75 °FSunny.17 mph37%30.14 "Hg10 mi
1:53 PM74 °FSunny.20 mph27%30.14 "Hg10 mi
12:53 PM74 °FSunny.13 mph28%30.14 "Hg10 mi
11:53 AM71 °FSunny.16 mph32%30.14 "Hg10 mi
10:53 AM68 °FSunny.16 mph36%30.13 "Hg10 mi
9:53 AM65 °FSunny.9 mph44%30.11 "Hg10 mi
8:53 AM61 °FSunny.9 mph67%30.07 "Hg10 mi
7:53 AM56 °FSunny.8 mph81%30.03 "Hg10 mi
6:53 AM55 °FClear.8 mph83%29.99 "Hg10 mi
5:53 AM56 °FClear.7 mph87%29.96 "Hg10 mi
4:53 AM57 °FClear.9 mph83%29.92 "Hg10 mi
3:53 AM60 °FClear.7 mph75%29.90 "Hg10 mi
Weather by CustomWeather, © 2016

See weather overviewHow to use our weather pages